Date String (YYYY-MM-DD hh:mm:ss) UTC,Instrument flags,Ambient pressure (hPa),Sample flow (lpm),Bypass flow (lpm),Sample temperature (°C),Ambient temperature (°C),ASC tube jacket temperature (°C),LED temperature (°C),Box temperature (°C),Sample RH (%),Span deviation,Mass concentration (μg/m³),Mass concentration (μg/m³),Mass concentration (μg/m³)
DateTimeUTC,F1_M11,P_M11,Q1_M11,Q2_M11,T1_M11,T2_M11,T3_M11,T4_M11,T5_M11,U1_M11,ZSPAN_M11,X0_M11,X2_M11,X1_M11
2022-03-21 19:00:00,,0825.1,5.00,0.00,20.7,20.0,00.0,29.9,22.3,19.3,0000.0,0007.08,0003.70,0003.24
2022-03-21 19:01:00,,0825.1,5.02,0.00,20.8,20.8,00.0,29.9,22.5,19.3,0000.0,0007.76,0003.74,0003.25
2022-03-21 19:02:00,,0825.1,4.98,0.00,21.0,22.0,00.0,30.0,22.9,19.1,0000.0,0007.96,0003.73,0003.25
2022-03-21 19:03:00,,0825.1,5.00,0.00,21.2,22.9,00.0,30.0,23.2,18.9,0000.0,0007.88,0003.71,0003.24
2022-03-21 19:04:00,,0825.1,5.01,0.00,21.3,22.6,00.0,30.1,23.2,18.8,0000.0,0007.77,0003.68,0003.24
2022-03-21 19:05:00,,0825.1,4.99,0.00,21.3,22.2,00.0,30.1,23.1,18.8,0000.0,0007.90,0003.72,0003.25
2022-03-21 19:06:00,,0825.1,4.99,0.00,21.3,21.8,00.0,30.1,23.0,19.0,0000.0,0007.92,0003.74,0003.25
2022-03-21 19:07:00,,0825.0,5.01,0.00,21.2,21.5,00.0,30.1,22.9,19.0,0000.0,0007.92,0003.76,0003.26
2022-03-21 19:08:00,,0825.0,4.99,0.00,21.2,21.2,00.0,30.1,22.8,19.3,0000.0,0007.79,0003.75,0003.26
2022-03-21 19:09:00,,0825.0,4.99,0.00,21.2,21.0,00.0,30.1,22.8,19.6,0000.0,0007.74,0003.78,0003.26
2022-03-21 19:10:00,,0825.0,5.01,0.00,21.1,20.8,00.0,30.1,22.8,19.1,0000.0,0007.78,0003.80,0003.26
2022-03-21 19:11:00,,0825.0,4.98,0.00,21.1,20.7,00.0,30.1,22.7,19.0,0000.0,0007.79,0003.84,0003.27
2022-03-21 19:12:00,,0824.9,4.99,0.00,21.1,20.6,00.0,30.1,22.6,19.5,0000.0,0007.88,0003.85,0003.27
2022-03-21 19:13:00,,0824.9,5.00,0.00,21.0,20.4,00.0,30.1,22.6,19.6,0000.0,0007.48,0003.86,0003.27
2022-03-21 19:14:00,,0824.9,5.01,0.00,21.0,20.3,00.0,30.1,22.5,19.3,0000.0,0007.53,0003.86,0003.26
2022-03-21 19:15:00,,0824.9,5.00,0.00,21.0,20.2,00.0,30.1,22.5,19.1,0000.0,0007.70,0003.93,0003.27
2022-03-21 19:16:00,,0824.9,5.00,0.00,20.9,20.2,00.0,30.1,22.5,19.3,0000.0,0007.69,0003.94,0003.27
2022-03-21 19:17:00,,0824.9,5.00,0.00,20.9,20.2,00.0,30.1,22.5,18.9,0000.0,0007.63,0003.91,0003.26
2022-03-21 19:18:00,,0824.9,4.99,0.00,20.9,20.1,00.0,30.0,22.4,18.8,0000.0,0007.53,0003.88,0003.27
2022-03-21 19:19:00,,0824.9,5.01,0.00,20.8,20.1,00.0,30.0,22.4,18.6,0000.0,0007.65,0003.85,0003.26
2022-03-21 19:20:00,,0824.9,5.00,0.00,20.8,20.0,00.0,30.0,22.3,18.5,0000.0,0007.67,0003.84,0003.27
2022-03-21 19:21:00,,0824.9,5.00,0.00,20.8,20.0,00.0,30.0,22.3,18.4,0000.0,0007.69,0003.84,0003.28
2022-03-21 19:22:00,,0824.8,5.00,0.00,20.7,20.0,00.0,30.0,22.3,19.1,0000.0,0007.73,0003.83,0003.29
2022-03-21 19:23:00,,0824.8,5.00,0.00,20.8,20.1,00.0,29.9,22.4,19.1,0000.0,0007.42,0003.81,0003.30
2022-03-21 19:24:00,,0824.8,5.00,0.00,20.8,20.1,00.0,29.9,22.4,19.4,0000.0,0007.40,0003.80,0003.32
2022-03-21 19:25:00,,0824.7,4.99,0.00,20.8,20.1,00.0,29.9,22.4,18.8,0000.0,0007.40,0003.82,0003.34
2022-03-21 19:26:00,,0824.7,5.01,0.00,20.8,20.1,00.0,29.9,22.4,19.3,0000.0,0007.33,0003.79,0003.35
2022-03-21 19:27:00,,0824.7,4.99,0.00,20.8,20.8,00.0,29.9,22.6,19.3,0000.0,0007.77,0003.79,0003.37
2022-03-21 19:28:00,,0824.8,5.01,0.00,21.0,22.0,00.0,30.0,23.0,18.9,0000.0,0008.38,0003.80,0003.38
2022-03-21 19:29:00,,0824.7,4.99,0.00,21.2,23.0,00.0,30.1,23.3,18.3,0000.0,0008.48,0003.83,0003.40
2022-03-21 19:30:00,,0824.7,5.00,0.00,21.3,22.8,00.0,30.1,23.3,18.3,0000.0,0008.25,0003.86,0003.41
2022-03-21 19:31:00,,0824.7,5.01,0.00,21.3,22.3,00.0,30.1,23.2,18.0,0000.0,0008.19,0003.87,0003.42
2022-03-21 19:32:00,,0824.8,5.00,0.00,21.3,21.9,00.0,30.1,23.1,18.2,0000.0,0008.29,0003.89,0003.43
2022-03-21 19:33:00,,0824.8,4.99,0.00,21.3,21.5,00.0,30.2,23.0,18.2,0000.0,0008.09,0003.87,0003.43
2022-03-21 19:34:00,,0824.7,5.02,0.00,21.2,21.3,00.0,30.2,22.9,18.5,0000.0,0007.99,0003.91,0003.44
2022-03-21 19:35:00,,0824.7,4.98,0.00,21.2,21.0,00.0,30.2,22.8,18.8,0000.0,0008.07,0003.90,0003.44
2022-03-21 19:36:00,,0824.7,5.01,0.00,21.2,20.9,00.0,30.2,22.8,18.4,0000.0,0008.05,0003.88,0003.45
2022-03-21 19:37:00,,0824.7,4.99,0.00,21.2,20.7,00.0,30.2,22.8,19.0,0000.0,0008.06,0003.89,0003.46
2022-03-21 19:38:00,,0824.6,5.00,0.00,21.1,20.6,00.0,30.2,22.7,18.6,0000.0,0007.71,0003.92,0003.46
2022-03-21 19:39:00,,0824.6,5.00,0.00,21.1,20.6,00.0,30.2,22.7,18.8,0000.0,0007.05,0003.93,0003.47
2022-03-21 19:40:00,,0824.6,5.01,0.00,21.1,20.5,00.0,30.1,22.7,18.7,0000.0,0007.41,0003.91,0003.47
2022-03-21 19:41:00,,0824.6,5.00,0.00,21.1,20.5,00.0,30.1,22.7,18.8,0000.0,0007.56,0003.96,0003.48
2022-03-21 19:42:00,,0824.7,5.00,0.00,21.0,20.5,00.0,30.1,22.7,18.4,0000.0,0008.03,0003.95,0003.47
2022-03-21 19:43:00,,0824.6,5.00,0.00,21.0,20.4,00.0,30.1,22.7,18.8,0000.0,0008.09,0003.94,0003.47
2022-03-21 19:44:00,,0824.7,4.98,0.00,21.0,20.4,00.0,30.1,22.7,19.1,0000.0,0008.40,0003.97,0003.47
2022-03-21 19:45:00,,0824.6,5.00,0.00,21.0,20.3,00.0,30.1,22.6,19.4,0000.0,0008.37,0003.96,0003.47
2022-03-21 19:46:00,,0824.6,5.00,0.00,21.0,20.3,00.0,30.1,22.6,19.0,0000.0,0008.34,0003.99,0003.48
2022-03-21 19:47:00,,0824.6,5.01,0.00,21.0,20.3,00.0,30.1,22.6,18.9,0000.0,0008.31,0004.00,0003.48
2022-03-21 19:48:00,,0824.6,5.00,0.00,20.9,20.2,00.0,30.1,22.5,18.4,0000.0,0008.26,0004.00,0003.47
2022-03-21 19:49:00,,0824.6,5.00,0.00,20.9,20.2,00.0,30.1,22.5,18.7,0000.0,0008.14,0003.96,0003.47
2022-03-21 19:50:00,,0824.6,5.01,0.00,20.9,20.1,00.0,30.0,22.4,18.6,0000.0,0008.08,0003.96,0003.46
2022-03-21 19:51:00,,0824.6,4.99,0.00,20.8,20.1,00.0,30.0,22.4,18.6,0000.0,0007.75,0003.96,0003.45
2022-03-21 19:52:00,,0824.6,4.99,0.00,20.8,20.1,00.0,30.0,22.4,18.7,0000.0,0007.54,0003.90,0003.44
2022-03-21 19:53:00,,0824.6,5.00,0.00,20.8,20.1,00.0,30.0,22.3,18.6,0000.0,0006.74,0003.89,0003.44
2022-03-21 19:54:00,,0824.6,5.00,0.00,20.8,20.1,00.0,30.0,22.3,18.9,0000.0,0006.59,0003.88,0003.44
2022-03-21 19:55:00,,0824.6,5.00,0.00,20.8,20.4,00.0,30.0,22.4,18.5,0000.0,0006.69,0003.90,0003.43
2022-03-21 19:56:00,,0824.6,5.01,0.00,20.9,21.6,00.0,30.0,22.8,18.4,0000.0,0006.78,0003.90,0003.43
2022-03-21 19:57:00,,0824.6,4.99,0.00,21.2,22.7,00.0,30.1,23.2,18.8,0000.0,0006.74,0003.86,0003.42
2022-03-21 19:58:00,,0824.5,4.99,0.00,21.3,22.8,00.0,30.1,23.3,18.0,0000.0,0006.96,0003.87,0003.42
2022-03-21 19:59:00,,0824.5,5.01,0.00,21.3,22.4,00.0,30.1,23.2,18.1,0000.0,0006.99,0003.85,0003.41
